Back to catalog

COSMOS 1478

AliveMilitaryLEO
NORAD 14176·PAYLOAD·🇷🇺 Russia

Launched Jul 6, 1983 from Plesetsk Cosmodrome

Loading…

Next Passes (next 24 hours)

TLE

FreshSource: Space-Track

Epoch: Sep 14, 2026, 01:33 UTC

1 14176U 83069F   26257.06491532 -.00000013  00000-0  18618-4 0  9990
2 14176  74.0231 281.9502 0011742  30.6003 358.2649 12.48264917968231

Track COSMOS 1478 in real time with AllMySat

Download on the App Store